Location: Marcé
(47.5801°N, 0.3280°W)
Time: 21:05:59
(UTC+01:00)

Explorer 7 - Pass Details

Date: 06 December 2021
Orbit: 483 x 674 km, 50.3° (Epoch: 17 January)

Event Time Altitude Azimuth Distance (km) Brightness Sun altitude
Rises 07:58:36 0° 265° (W) 2,800 - -6.0°
Exits shadow 07:59:27 - 266° (W) 2,462 9.6 -5.9°
Reaches altitude 10° 08:00:58 10° 269° (W) 1,867 9.0 -5.7°
Maximum altitude 08:05:10 63° 350° (N) 611 6.9 -5.1°
Drops below altitude 10° 08:09:08 10° 73° (ENE) 1,758 10.1 -4.5°
Sets 08:11:18 0° 77° (ENE) 2,620 11.1 -4.2°
